Weather History for CWCL - June, 2013

Change the Weather History Date:

Tuesday, June 11, 2013

  Actual Average Record
Temperature  
Mean Temperature 52 °F -  
Max Temperature 66 °F 63 °F 76 °F (2015)
Min Temperature 39 °F 39 °F 30 °F (1999)
Degree Days  
Heating Degree Days 12    
Growing Degree Days 2 (Base 50)    
Moisture  
Dew Point 42 °F    
Average Humidity 69    
Maximum Humidity 93    
Minimum Humidity 33    
Precipitation  
Precipitation 0.04 in - - ()
Sea Level Pressure  
Sea Level Pressure 29.86 in    
Wind  
Wind Speed 4 mph ()    
Max Wind Speed 16 mph    
Max Gust Speed 22 mph    
Visibility 8.4 miles    
Events Rain    
Averages and records for this station are not official NWS values.
T = Trace of Precipitation, MM = Missing Value Source: Averaged Metar Reports

Daily Weather History Graph

Daily Weather History Graph

Search for Another Location

Airport or City:

Trip Planner

Search our weather history database for the weather conditions in past years. The results will help you decide how hot, cold, wet, or windy it might be!

Date:

Astronomy

Jun. 11, 2013 Rise Set
Actual Time 4:50 AM PDT 9:20 PM PDT
Civil Twilight 4:04 AM PDT 10:07 PM PDT
Nautical Twilight 2:54 AM PDT 11:18 PM PDT
Astronomical Twilight 1:38 AM PDT 12:33 AM PDT
Moon 7:54 AM PDT (6/11) 11:07 PM PDT (6/11)
Length of Visible Light 18h 03m
Length of Day
16h 30m
Waxing Crescent, 9% of the Moon is Illuminated
Jun 11
Waxing Crescent
Jun 16
First Quarter
Jun 23
Full
Jun 29
Last Quarter
Jul 8
New

Hourly Weather History & Observations

Time (PDT) Temp. Windchill Dew Point Humidity Pressure Visibility Wind Dir Wind Speed Gust Speed Precip Events Conditions
12:00 AM 44.6 °F 41.4 °F 37.4 °F 76% 29.90 in 9.0 mi WNW 5.8 mph - N/A   Clear
1:00 AM 42.8 °F - 35.6 °F 76% 29.89 in 9.0 mi Calm Calm - N/A   Clear
2:00 AM 41 °F - 36 °F 77% 29.88 in 9 mi NW 4.6 mph - -  
2:00 AM 41.0 °F - 35.6 °F 81% 29.88 in 9.0 mi WNW 2.3 mph - N/A   Clear
3:00 AM 41.0 °F - 37.4 °F 87% 29.88 in 9.0 mi Calm Calm - N/A   Mostly Cloudy
4:00 AM 41.0 °F - 37.4 °F 87% 29.88 in 9.0 mi Calm Calm - N/A   Mostly Cloudy
5:00 AM 40 °F - 37 °F 83% 29.87 in 9 mi Calm Calm - -  
5:00 AM 41.0 °F - 37.4 °F 87% 29.87 in 9.0 mi Calm Calm - N/A   Mostly Cloudy
6:00 AM 42.8 °F - 39.2 °F 87% 29.87 in 9.0 mi SW 2.3 mph - N/A   Overcast
7:00 AM 48.2 °F - 41.0 °F 76% 29.86 in 9.0 mi ESE 3.5 mph - N/A   Overcast
8:00 AM 51 °F - 42 °F 61% 29.85 in 9 mi North 2.3 mph - -  
8:00 AM 50.0 °F - 41.0 °F 71% 29.85 in 9.0 mi North 3.5 mph - N/A   Mostly Cloudy
9:00 AM 53.6 °F - 42.8 °F 67% 29.85 in 9.0 mi ESE 2.3 mph - N/A   Mostly Cloudy
10:00 AM 55.4 °F - 42.8 °F 63% 29.85 in 9.0 mi SE 3.5 mph - N/A   Mostly Cloudy
10:41 AM 59.0 °F - 42.8 °F 55% 29.82 in 9.0 mi ENE 3.5 mph - N/A   Light Drizzle
10:44 AM 60.8 °F - 42.8 °F 52% 29.82 in 9.0 mi North 2.3 mph - N/A   Mostly Cloudy
11:00 AM 60 °F - 42 °F 41% 29.83 in 9 mi Calm Calm - -  
11:00 AM 60.8 °F - 42.8 °F 52% 29.83 in 9.0 mi Calm Calm - N/A   Mostly Cloudy
12:00 PM 62.6 °F - 39.2 °F 42% 29.82 in 9.0 mi WSW 2.3 mph - N/A   Scattered Clouds
12:49 PM 64.4 °F - 41.0 °F 42% 29.80 in 9.0 mi South 4.6 mph - N/A   Overcast
1:00 PM 64.4 °F - 42.8 °F 45% 29.82 in 9.0 mi SSE 10.4 mph - N/A   Overcast
1:10 PM 62.6 °F - 39.2 °F 42% 29.81 in 9.0 mi South 16.1 mph - N/A   Mostly Cloudy
1:18 PM 60.8 °F - 41.0 °F 48% 29.82 in 9.0 mi South 9.2 mph 21.9 mph N/A Rain Light Rain
1:34 PM 57.2 °F - 41.0 °F 55% 29.82 in 9.0 mi SE 8.1 mph 18.4 mph N/A   Mostly Cloudy
1:38 PM 57.2 °F - 41.0 °F 55% 29.82 in 9.0 mi SE 9.2 mph - N/A Rain Light Rain
2:00 PM 62 °F - 40 °F 33% 29.84 in 9 mi South 4.6 mph - -  
2:00 PM 60.8 °F - 41.0 °F 48% 29.84 in 9.0 mi SSW 5.8 mph - N/A   Mostly Cloudy
3:00 PM 62.6 °F - 41.0 °F 45% 29.82 in 9.0 mi South 4.6 mph - N/A   Partly Cloudy
4:00 PM 64.4 °F - 41.0 °F 42% 29.82 in 9.0 mi WSW 12.7 mph 18.4 mph N/A   Partly Cloudy
4:27 PM 62.6 °F - 41.0 °F 45% 29.80 in 9.0 mi SW 10.4 mph 18.4 mph N/A Rain Light Rain
4:42 PM 60.8 °F - 37.4 °F 42% 29.80 in 9.0 mi SSW 6.9 mph - N/A   Mostly Cloudy
4:46 PM 60.8 °F - 41.0 °F 48% 29.80 in 9.0 mi North - - N/A Rain Light Rain
4:55 PM 53.6 °F - 46.4 °F 77% 29.82 in 2.0 mi SW 8.1 mph - N/A Rain Rain
5:00 PM 52 °F - 46 °F 75% 29.86 in 2 mi SSW 5.8 mph - -   Overcast
5:00 PM 51.8 °F - 46.4 °F 82% 29.86 in 1.8 mi SSE 5.8 mph - N/A   Overcast
5:14 PM 51.8 °F - 48.2 °F 88% 29.83 in 8.0 mi SW 4.6 mph - N/A Rain Rain
5:23 PM 51.8 °F - 48.2 °F 88% 29.83 in 9.0 mi SSW 4.6 mph - N/A   Overcast
5:42 PM 51.8 °F - 46.4 °F 82% 29.84 in 9.0 mi South 9.2 mph - N/A Rain Light Rain
6:00 PM 51.8 °F - 48.2 °F 88% 29.88 in 9.0 mi South 5.8 mph - N/A Rain Light Rain
6:18 PM 50.0 °F - 46.4 °F 87% 29.86 in 3.5 mi South 4.6 mph 17.3 mph N/A Rain Light Rain
6:44 PM 50.0 °F - 46.4 °F 87% 29.86 in 9.0 mi SE 4.6 mph - N/A   Overcast
6:56 PM 50.0 °F - 46.4 °F 87% 29.86 in 9.0 mi East 2.3 mph - N/A   Mostly Cloudy
7:00 PM 50.0 °F - 46.4 °F 87% 29.89 in 9.0 mi Calm Calm - N/A   Mostly Cloudy
8:00 PM 49 °F - 44 °F 75% 29.91 in 9 mi SSE 3.5 mph - -  
8:00 PM 48.2 °F - 42.8 °F 82% 29.91 in 9.0 mi South 3.5 mph - N/A   Mostly Cloudy
9:00 PM 46.4 °F - 44.6 °F 93% 29.94 in 9.0 mi Calm Calm - N/A   Scattered Clouds
10:00 PM 44.6 °F 42.2 °F 42.8 °F 93% 29.96 in 9.0 mi WNW 4.6 mph - N/A   Scattered Clouds
11:00 PM 44 °F - 42 °F 90% 29.96 in 9 mi West 3.5 mph - -  
11:00 PM 44.6 °F 43.1 °F 42.8 °F 93% 29.96 in 9.0 mi West 3.5 mph - N/A   Scattered Clouds